This demonstration page uses our WeatherBlox Daily Observations layout. Learn more.

Left ArrowRight Arrow

39.12711, -84.51439

Hourly Observations for August 1, 2016

Temp ( °F °C ) Dew Point ( °F °C ) Humidity (%) Winds ( mph kmh ) Pressure ( in mb ) Visibility ( mi km ) Precip ( " mm )
12:53 am 00:53 Clear 70 21.1 70 21.1 100 100 N N/A 30.04 1017 8 13 N/A
1:53 am 01:53 Clear with Mist and Fog 69 20.6 69 20.6 100 100 N N/A 30.04 1017 6 10 N/A
2:53 am 02:53 Partly Cloudy with Mist and Fog 69 20.6 69 20.6 100 100 N N/A 30.03 1017 4 6 N/A
3:53 am 03:53 Clear with Mist and Fog 69 20.6 69 20.6 100 100 N N/A 30.04 1017 5 8 N/A
4:53 am 04:53 Clear with Mist and Fog 68 20 68 20 100 100 N N/A 30.03 1017 4 6 N/A
5:53 am 05:53 Clear with Mist and Fog 68 20 68 20 100 100 N N/A 30.04 1017 4 6 N/A
6:53 am 06:53 Sunny with Mist and Fog 69 20.6 69 20.6 100 100 N N/A 30.05 1018 4 6 N/A
7:53 am 07:53 Sunny with Mist and Fog 71 21.7 71 21.7 100 100 N N/A 30.06 1018 5 8 N/A
8:53 am 08:53 Sunny with Mist and Fog 73 22.8 72 22.2 96 96 SSW 3 6 30.07 1018 6 10 N/A
9:53 am 09:53 Sunny 77 25 73 22.8 88 88 N N/A 30.06 1018 9 14 N/A
10:53 am 10:53 Partly Cloudy 81 27.2 73 22.8 77 77 S 3 6 30.06 1018 10 16 N/A
11:53 am 11:53 Partly Cloudy 82 27.8 74 23.3 77 77 S 7 11 30.06 1018 10 16 N/A
12:53 pm 12:53 Partly Cloudy 84 28.9 73 22.8 70 70 SSE 7 11 30.05 1018 10 16 N/A
1:53 pm 13:53 Mostly Cloudy 83 28.3 73 22.8 72 72 S 8 13 30.05 1018 10 16 N/A
2:24 pm 14:24 Mostly Cloudy with Thunderstorms 79 26 75 24 89 89 S 7 11 30.03 1017 10 16 N/A
2:53 pm 14:53 Mostly Cloudy with Light Rain 74 23.3 70 21.1 88 88 SW 12 19 30.07 1018 10 16 N/A
3:06 pm 15:06 Mostly Cloudy with Rain 73 23 72 22 94 94 S 7 11 30.06 1018 4 6 N/A
3:16 pm 15:16 Mostly Cloudy with Thunderstorms 73 23 72 22 94 94 S 7 11 30.06 1018 4 6 N/A
3:22 pm 15:22 Cloudy with Light Rain 73 23 72 22 94 94 SSW 6 9 30.03 1017 5 8 N/A
3:53 pm 15:53 Mostly Cloudy with Light Rain 74 23.3 72 22.2 94 94 N N/A 30.04 1017 10 16 0.04 1.02
4:53 pm 16:53 Mostly Cloudy 76 24.4 73 22.8 91 91 VRB 3 6 30.04 1017 10 16 0.01 0.25
5:53 pm 17:53 Mostly Sunny 80 26.7 73 22.8 79 79 N N/A 30.02 1017 10 16 N/A
6:53 pm 18:53 Mostly Sunny 81 27.2 74 23.3 79 79 VRB 5 7 30.00 1016 10 16 N/A
7:53 pm 19:53 Partly Cloudy 82 28 66 19 58 58 W 5 7 29.97 1015 10 16 N/A
8:53 pm 20:53 Mostly Clear 73 22.8 73 22.8 100 100 N N/A 30.03 1017 10 16 N/A
9:53 pm 21:53 Mostly Cloudy 74 23.3 73 22.8 97 97 N N/A 30.03 1017 10 16 N/A
10:53 pm 22:53 Mostly Clear 73 22.8 72 22.2 96 96 NNE 3 6 30.04 1017 10 16 N/A
11:53 pm 23:53 Partly Cloudy 71 21.7 71 21.7 100 100 N N/A 30.05 1018 7 11 N/A

Powered by AerisWeather